User: anonymous   Login
Location: Unspecified
(0.0000°N, 0.0000°E)
Time: 05:34:16
(UTC+00:00)
Language:

WORLDVIEW-4 - Orbit

View from above orbital plane
View from above orbital plane
View from above satellite
View from above satellite

Ground track
Ground track

The orbit data is extracted from the following two-line orbital elements,

1 41848U 16067A   18324.77856495 -.00000116  00000-0 -73280-5 0  9999
2 41848  97.8984  40.7260 0002636  98.2937 261.8573 14.84984399109669
Epoch (UTC): 20 November 2018 18:41:08
Eccentricity: 0.0002636
inclination: 97.8984°
perigee height: 612 km
apogee height: 615 km
right ascension of ascending node: 40.7260°
argument of perigee: 98.2937°
revolutions per day: 14.84984399
mean anomaly at epoch: 261.8573°
orbit number at epoch: 10966

The dashed part of the orbit path shows where the satellite is in the earth's shadow,  

DLR